Location: Country View Observatory
(32.9873°N, 83.6444°W)
Time: 00:41:16
(UTC-04:00)

ISS - Pass Details

Date: 22 September 2019
Orbit: 411 x 421 km, 51.6° (Epoch: 17 October)

Event Time Altitude Azimuth Distance (km) Brightness Sun altitude
Rises 19:55:04 0° 248° (WSW) 2,331 1.4 -5.8°
Reaches altitude 10° 19:57:19 10° 260° (W) 1,472 0.6 -6.2°
Maximum altitude 20:00:15 29° 322° (NW) 791 -1.8 -6.8°
Drops below altitude 10° 20:03:11 10° 25° (NNE) 1,477 -1.2 -7.5°
Sets 20:05:27 0° 37° (NE) 2,341 -0.3 -7.9°
